Orbital Elements at Epoch 2459200.5 (2020-Dec-17.0) TDB
Reference: JPL 27 (heliocentric ecliptic J2000)
Element | Value | Uncertainty (1-sigma) | Units |
e | .1579361287185773 | 3.2124e-08 | |
a | 2.418730099026491 | 7.4935e-09 | au |
q | 2.036725230771146 | 7.7803e-08 | au |
i | 2.40659277917797 | 5.0391e-06 | deg |
node | 190.9856921750284 | 6.7134e-05 | deg |
peri | 238.3470229621428 | 6.9001e-05 | deg |
M | 183.203143591916 | 1.5098e-05 | deg |
tp | 2459875.263493916817 (2022-Oct-22.76349392) | 5.8558e-05 | TDB |
period | 1373.977245666382 3.76 | 6.3851e-06 1.748e-08 | d yr |
n | .2620130727313458 | 1.2176e-09 | deg/d |
Q | 2.800734967281837 | 8.6769e-09 | au |
|
| | Orbit Determination Parameters
Additional Information
|